EA7RX-4 Weather Reports


time (UTC)temp
C
wind
direction
speed
KPH
gust
KPH
rain 1hr
cm
rain 24hr
cm
rain mn
cm
humidity
%
barometer
mb
20260510202003 9 202 14.5 22.5 0.00 0.99 0.79 84 1011.4
20260510201003 9 205 9.7 17.7 0.00 0.99 0.79 85 1011.2
20260510200003 10 197 9.7 14.5 0.00 0.99 0.79 85 1011.2
20260510195003 10 195 11.3 16.1 0.00 0.99 0.79 85 1011.0
20260510194003 10 194 8.0 14.5 0.00 0.99 0.79 86 1010.9
20260510193003 10 199 11.3 20.9 0.00 0.99 0.79 85 1010.8
20260510192003 10 177 9.7 16.1 0.00 0.99 0.79 85 1010.9
20260510191003 10 183 9.7 16.1 0.00 0.99 0.79 83 1010.7
20260510190003 11 181 11.3 20.9 0.00 0.99 0.79 81 1010.4
20260510185003 11 194 12.9 20.9 0.00 0.99 0.79 79 1010.4
20260510184003 11 199 11.3 16.1 0.00 0.99 0.79 79 1010.4
20260510183003 11 194 12.9 22.5 0.00 0.99 0.79 80 1010.5
20260510182003 11 204 11.3 22.5 0.00 0.99 0.79 78 1010.4
20260510181003 11 210 14.5 29.0 0.00 0.99 0.79 74 1010.7
20260510180003 12 216 11.3 24.1 0.00 0.99 0.79 72 1010.5
20260510175003 12 217 14.5 24.1 0.00 0.99 0.79 71 1010.3
20260510174003 12 213 14.5 24.1 0.00 0.99 0.79 71 1010.5
20260510173003 12 233 14.5 27.4 0.00 0.99 0.79 73 1010.6
20260510172003 12 214 14.5 25.7 0.00 0.99 0.79 73 1010.2
20260510171003 12 216 14.5 24.1 0.00 0.99 0.79 74 1010.5
20260510170003 12 208 14.5 29.0 0.00 0.99 0.79 75 1010.5
20260510165003 12 214 12.9 24.1 0.00 1.04 0.79 74 1010.2
20260510164003 12 214 14.5 33.8 0.00 1.24 0.79 76 1010.3
20260510163003 12 215 12.9 22.5 0.00 1.47 0.79 77 1010.3
20260510162003 11 209 11.3 17.7 0.00 1.55 0.79 79 1010.2
20260510161003 11 212 14.5 24.1 0.03 1.55 0.79 80 1010.3
20260510160003 11 213 12.9 24.1 0.10 1.55 0.79 83 1010.4
20260510155003 11 204 11.3 22.5 0.15 1.55 0.79 84 1010.3
20260510154003 10 206 12.9 24.1 0.18 1.55 0.79 87 1010.3
20260510153003 10 225 11.3 22.5 0.20 1.55 0.79 87 1010.4
20260510152003 9 221 12.9 29.0 0.20 1.55 0.79 92 1010.4
20260510151003 9 231 14.5 29.0 0.18 1.52 0.76 93 1010.9
20260510150003 10 210 8.0 20.9 0.10 1.45 0.69 92 1010.6
20260510145003 10 208 11.3 20.9 0.05 1.40 0.64 90 1010.6
20260510144003 10 207 11.3 24.1 0.03 1.37 0.61 87 1010.5
20260510143003 10 209 9.7 24.1 0.00 1.35 0.58 84 1010.4
20260510142003 10 213 12.9 22.5 0.00 1.35 0.58 84 1010.6
20260510141003 11 220 14.5 24.1 0.00 1.35 0.58 80 1010.7
20260510140003 11 227 16.1 27.4 0.00 1.35 0.58 76 1010.6
20260510135003 11 224 16.1 25.7 0.00 1.37 0.58 74 1010.7
20260510134003 11 224 16.1 27.4 0.00 1.37 0.58 77 1010.3
20260510133003 11 217 14.5 24.1 0.00 1.45 0.58 79 1010.4
20260510132003 11 226 14.5 29.0 0.00 1.50 0.58 79 1010.5
20260510131003 10 232 17.7 27.4 0.00 1.50 0.58 80 1010.5
20260510130003 10 222 19.3 30.6 0.03 1.50 0.58 83 1010.8
20260510125003 10 225 14.5 29.0 0.03 1.50 0.58 86 1010.6
20260510124003 10 227 17.7 29.0 0.03 1.50 0.58 85 1010.9
20260510123003 10 230 14.5 24.1 0.05 1.50 0.58 84 1010.7
20260510122003 10 217 9.7 20.9 0.10 1.50 0.58 88 1010.6
20260510121003 9 228 20.9 35.4 0.23 1.50 0.58 90 1011.0
20260510120003 9 227 20.9 33.8 0.23 1.47 0.56 89 1011.3
20260510115003 9 236 17.7 30.6 0.23 1.47 0.56 91 1010.9
20260510114003 8 223 14.5 40.2 0.23 1.47 0.56 94 1011.0
20260510113003 8 228 17.7 35.4 0.20 1.45 0.53 93 1010.8
20260510112003 8 247 25.7 43.5 0.15 1.40 0.48 91 1011.2
20260510111003 11 206 24.1 40.2 0.03 1.27 0.36 83 1010.7
20260510110003 11 184 17.7 33.8 0.00 1.24 0.33 83 1009.8
20260510105003 12 177 17.7 27.4 0.00 1.24 0.33 78 1009.8
20260510104003 12 173 17.7 30.6 0.00 1.24 0.33 77 1009.8
20260510103003 12 178 17.7 30.6 0.00 1.24 0.33 78 1010.2
20260510102003 12 170 16.1 38.6 0.05 1.24 0.33 82 1010.2
20260510101003 12 177 17.7 35.4 0.08 1.24 0.33 81 1010.2
20260510100003 11 169 17.7 30.6 0.10 1.24 0.33 85 1010.4
20260510095003 11 162 17.7 29.0 0.13 1.24 0.33 85 1010.6
20260510094003 10 154 11.3 25.7 0.13 1.24 0.33 92 1010.6
20260510093003 10 166 11.3 25.7 0.13 1.24 0.33 91 1010.5
20260510092003 10 169 9.7 17.7 0.08 1.19 0.28 90 1010.6
20260510091003 10 184 12.9 25.7 0.05 1.17 0.25 88 1010.7
20260510090003 11 193 12.9 27.4 0.03 1.14 0.23 86 1010.8
20260510085003 11 186 14.5 25.7 0.00 1.12 0.20 88 1010.7
20260510084003 11 192 14.5 25.7 0.00 1.12 0.20 84 1010.5
20260510083003 11 195 12.9 24.1 0.00 1.12 0.20 87 1010.6
20260510082003 11 189 14.5 25.7 0.00 1.12 0.20 88 1010.8
20260510081003 11 195 9.7 22.5 0.00 1.12 0.20 89 1010.7
20260510080003 10 161 11.3 27.4 0.00 1.12 0.20 90 1010.9
20260510075003 10 163 12.9 24.1 0.00 1.12 0.20 91 1011.0
20260510074003 10 152 11.3 22.5 0.00 1.12 0.20 92 1010.8
20260510073003 10 153 6.4 16.1 0.00 1.12 0.20 93 1010.8
20260510072003 9 146 8.0 16.1 0.00 1.12 0.20 93 1010.8
20260510071003 9 150 9.7 17.7 0.00 1.12 0.20 93 1010.7
20260510070003 9 162 11.3 20.9 0.00 1.12 0.20 93 1010.8
20260510065003 9 162 9.7 20.9 0.00 1.12 0.20 94 1010.6
20260510064003 8 152 8.0 14.5 0.00 1.12 0.20 94 1010.5
20260510063003 8 167 8.0 16.1 0.03 1.12 0.20 94 1010.2
20260510062003 8 154 6.4 14.5 0.03 1.12 0.20 95 1010.6
20260510061003 8 168 8.0 16.1 0.03 1.12 0.20 95 1010.4
20260510060003 8 167 8.0 16.1 0.03 1.12 0.20 95 1010.4
20260510055003 8 147 9.7 17.7 0.03 1.12 0.20 95 1010.5
20260510054003 8 166 11.3 20.9 0.03 1.12 0.20 95 1010.4
20260510053003 8 158 8.0 14.5 0.00 1.09 0.18 95 1010.4
20260510052003 8 165 8.0 16.1 0.00 1.09 0.18 95 1010.1
20260510051003 8 148 9.7 16.1 0.00 1.09 0.18 94 1010.3
20260510050003 8 148 11.3 20.9 0.00 1.09 0.18 94 1010.3
20260510045003 7 151 9.7 20.9 0.00 1.09 0.18 94 1010.1
20260510044003 7 142 11.3 20.9 0.00 1.09 0.18 95 1010.1
20260510043003 7 137 9.7 16.1 0.00 1.09 0.18 94 1010.4
20260510042003 7 143 9.7 14.5 0.00 1.09 0.18 95 1010.2
20260510041003 7 132 8.0 14.5 0.00 1.09 0.18 95 1010.3
20260510040003 7 133 4.8 9.7 0.00 1.09 0.18 94 1010.4
20260510035003 8 144 6.4 11.3 0.00 1.09 0.18 94 1010.5
20260510034003 8 153 6.4 12.9 0.00 1.09 0.18 93 1010.7
20260510033003 8 187 8.0 12.9 0.00 1.09 0.18 93 1010.8
20260510032003 8 186 6.4 11.3 0.00 1.09 0.18 93 1010.7
20260510031003 8 188 6.4 11.3 0.00 1.09 0.18 93 1010.7
20260510030003 8 190 8.0 12.9 0.00 1.09 0.18 93 1010.8
20260510025003 8 191 8.0 12.9 0.00 1.09 0.18 93 1010.9
20260510024003 8 193 6.4 12.9 0.00 1.09 0.18 93 1010.9
20260510023003 8 197 9.7 16.1 0.00 1.09 0.18 92 1010.9
20260510022003 8 198 9.7 14.5 0.00 1.09 0.18 92 1010.9
20260510021003 8 204 8.0 14.5 0.00 1.09 0.18 92 1011.0
20260510020003 8 204 9.7 16.1 0.00 1.09 0.18 92 1010.8
20260510015003 8 203 9.7 16.1 0.00 1.09 0.18 92 1010.9
20260510014003 8 206 9.7 16.1 0.00 1.09 0.18 92 1011.0
20260510013003 8 203 11.3 17.7 0.00 1.09 0.18 93 1010.8
20260510012003 8 208 11.3 20.9 0.03 1.09 0.18 93 1010.8
20260510011003 8 208 11.3 17.7 0.03 1.09 0.18 94 1010.9
20260510010003 8 214 11.3 16.1 0.05 1.09 0.18 93 1011.3
20260510005003 8 217 12.9 25.7 0.05 1.09 0.18 92 1011.3
20260510004003 8 215 12.9 25.7 0.05 1.09 0.18 92 1011.4
20260510003003 8 212 11.3 17.7 0.10 1.09 0.18 93 1011.6
20260510002003 8 210 9.7 16.1 0.10 1.07 0.15 93 1011.4
20260510001003 8 211 8.0 12.9 0.13 1.07 0.15 93 1011.4
20260510000003 8 222 11.3 17.7 0.10 1.04 0.13 91 1011.5
20260509235003 8 217 11.3 20.9 0.10 1.04 0.13 91 1011.6
20260509234003 8 234 12.9 22.5 0.10 1.04 0.13 92 1011.6
20260509233003 9 235 12.9 24.1 0.05 0.99 0.08 91 1011.6
20260509232003 9 218 11.3 22.5 0.03 0.97 0.05 89 1011.6
20260509231003 9 215 9.7 22.5 0.00 0.94 0.03 90 1011.0
20260509230003 9 208 11.3 24.1 0.03 0.94 0.03 89 1011.3
20260509225003 8 201 8.0 17.7 0.08 0.94 0.03 92 1011.0
20260509224003 8 201 9.7 24.1 0.20 0.94 0.03 93 1011.0
20260509223003 8 212 8.0 20.9 0.23 0.94 0.03 94 1011.0
20260509222003 8 208 8.0 20.9 0.23 0.94 0.03 95 1011.2
20260509221003 8 211 8.0 16.1 0.23 0.94 0.03 94 1011.0
20260509220003 8 225 12.9 22.5 0.20 0.91 0.00 94 1011.2
20260509215003 8 233 12.9 27.4 0.15 0.86 0.86 93 1011.2
20260509214003 8 244 17.7 35.4 0.03 0.74 0.76 92 1010.9
20260509213003 9 247 16.1 29.0 0.00 0.71 0.71 89 1010.9
20260509212003 10 208 17.7 38.6 0.00 0.71 0.71 82 1011.0
20260509211003 11 152 14.5 24.1 0.00 0.71 0.71 82 1010.2
20260509210003 11 170 14.5 25.7 0.00 0.71 0.71 82 1010.1
20260509205003 11 151 14.5 27.4 0.00 0.71 0.71 81 1009.7
20260509204003 11 160 12.9 25.7 0.00 0.71 0.71 81 1009.7
20260509203003 11 158 14.5 29.0 0.00 0.71 0.71 81 1009.4